• In Austria
  • List of Countries
  • For 7 days
  • Water Temperature
  • Satellite Maps
  • Weather Map
  • News
  • Weather Widgets
  • user-avatar
    Login

    Hourly Weather Mardan

    Today, 21 October, Sunday

    Time Temperature Precipitation Wind Pressure Humidity
    00:00 +23°C° 0 mm 2 mps 735 mmHg 25%
    01:00 +21°C° 0 mm 2 mps 735 mmHg 25%
    02:00 +21°C° 0 mm 2 mps 735 mmHg 25%
    03:00 +21°C° 0 mm 2 mps 735 mmHg 25%
    04:00 +20°C° 0 mm 2 mps 735 mmHg 26%
    05:00 +20°C° 0 mm 2 mps 736 mmHg 26%
    06:00 +20°C° 0 mm 2 mps 736 mmHg 25%
    07:00 +21°C° 0 mm 2 mps 736 mmHg 25%
    08:00 +23°C° 0 mm 2 mps 737 mmHg 24%
    09:00 +25°C° 0 mm 1 mps 737 mmHg 21%
    10:00 +27°C° 0 mm 1 mps 737 mmHg 19%
    11:00 +29°C° 0 mm 1 mps 737 mmHg 16%
    12:00 +30°C° 0 mm 1 mps 736 mmHg 15%
    13:00 +31°C° 0 mm 2 mps 736 mmHg 15%
    14:00 +31°C° 0 mm 2 mps 736 mmHg 14%
    15:00 +30°C° 0 mm 1 mps 736 mmHg 16%
    16:00 +30°C° 0 mm 1 mps 736 mmHg 19%
    17:00 +28°C° 0 mm 1 mps 735 mmHg 21%
    18:00 +27°C° 0 mm 1 mps 736 mmHg 22%
    19:00 +26°C° 0 mm 1 mps 736 mmHg 23%
    20:00 +25°C° 0 mm 1 mps 736 mmHg 23%
    21:00 +25°C° 0 mm 1 mps 736 mmHg 24%
    22:00 +24°C° 0 mm 2 mps 736 mmHg 24%
    23:00 +23°C° 0 mm 2 mps 736 mmHg 25%

    Tomorrow, 22 October, Monday

    Time Temperature Precipitation Wind Pressure Humidity
    00:00 +23°C° 0 mm 2 mps 736 mmHg 25%
    01:00 +21°C° 0 mm 2 mps 736 mmHg 26%
    02:00 +21°C° 0 mm 2 mps 735 mmHg 26%
    03:00 +20°C° 0 mm 2 mps 735 mmHg 26%
    04:00 +20°C° 0 mm 2 mps 735 mmHg 26%
    05:00 +20°C° 0 mm 2 mps 735 mmHg 26%
    06:00 +20°C° 0 mm 2 mps 735 mmHg 25%
    07:00 +21°C° 0 mm 2 mps 735 mmHg 24%
    08:00 +23°C° 0 mm 2 mps 736 mmHg 24%
    09:00 +25°C° 0 mm 2 mps 736 mmHg 21%
    10:00 +27°C° 0 mm 2 mps 735 mmHg 18%
    11:00 +29°C° 0 mm 1 mps 735 mmHg 15%
    12:00 +29°C° 0 mm 2 mps 735 mmHg 15%
    13:00 +30°C° 0 mm 2 mps 734 mmHg 14%
    14:00 +31°C° 0 mm 2 mps 734 mmHg 14%
    15:00 +30°C° 0 mm 1 mps 734 mmHg 16%
    16:00 +29°C° 0 mm 1 mps 733 mmHg 18%
    17:00 +28°C° 0 mm 1 mps 733 mmHg 20%
    18:00 +27°C° 0 mm 1 mps 734 mmHg 21%
    19:00 +26°C° 0 mm 1 mps 734 mmHg 21%
    20:00 +25°C° 0 mm 1 mps 734 mmHg 22%
    21:00 +24°C° 0 mm 1 mps 734 mmHg 22%
    22:00 +23°C° 0 mm 2 mps 734 mmHg 23%
    23:00 +23°C° 0 mm 2 mps 735 mmHg 23%

    Day after tomorrow, 23 October, Tuesday

    Time Temperature Precipitation Wind Pressure Humidity
    00:00 +21°C° 0 mm 2 mps 734 mmHg 23%
    01:00 +21°C° 0 mm 2 mps 734 mmHg 23%
    02:00 +20°C° 0 mm 2 mps 734 mmHg 23%
    03:00 +20°C° 0 mm 2 mps 734 mmHg 22%
    04:00 +19°C° 0 mm 2 mps 734 mmHg 22%
    05:00 +19°C° 0 mm 2 mps 734 mmHg 22%
    06:00 +19°C° 0 mm 2 mps 734 mmHg 22%
    07:00 +20°C° 0 mm 2 mps 734 mmHg 21%
    08:00 +21°C° 0 mm 2 mps 735 mmHg 21%
    09:00 +24°C° 0 mm 2 mps 735 mmHg 18%
    10:00 +26°C° 0 mm 2 mps 735 mmHg 16%
    11:00 +28°C° 0 mm 1 mps 735 mmHg 13%
    12:00 +29°C° 0 mm 2 mps 734 mmHg 13%
    13:00 +29°C° 0 mm 2 mps 734 mmHg 12%
    14:00 +30°C° 0 mm 2 mps 734 mmHg 12%
    15:00 +29°C° 0 mm 1 mps 734 mmHg 13%
    16:00 +28°C° 0 mm 1 mps 734 mmHg 15%
    17:00 +27°C° 0 mm 1 mps 733 mmHg 17%
    18:00 +26°C° 0 mm 1 mps 734 mmHg 18%
    19:00 +25°C° 0 mm 1 mps 734 mmHg 18%
    20:00 +24°C° 0 mm 1 mps 735 mmHg 19%
    21:00 +23°C° 0 mm 1 mps 735 mmHg 19%
    22:00 +21°C° 0 mm 2 mps 735 mmHg 20%
    23:00 +21°C° 0 mm 2 mps 735 mmHg 21%

    24 October, Wednesday

    Time Temperature Precipitation Wind Pressure Humidity
    00:00 +20°C° 0 mm 2 mps 735 mmHg 21%
    01:00 +20°C° 0 mm 2 mps 735 mmHg 21%
    02:00 +19°C° 0 mm 2 mps 735 mmHg 21%
    03:00 +19°C° 0 mm 2 mps 734 mmHg 21%
    04:00 +19°C° 0 mm 2 mps 734 mmHg 21%
    05:00 +18°C° 0 mm 2 mps 734 mmHg 21%
    06:00 +19°C° 0 mm 2 mps 735 mmHg 21%
    07:00 +20°C° 0 mm 2 mps 735 mmHg 21%
    08:00 +22°C° 0 mm 1 mps 735 mmHg 20%
    09:00 +24°C° 0 mm 1 mps 735 mmHg 18%
    10:00 +26°C° 0 mm 1 mps 736 mmHg 15%
    11:00 +28°C° 0 mm 1 mps 736 mmHg 13%
    12:00 +28°C° 0 mm 1 mps 735 mmHg 12%
    13:00 +29°C° 0 mm 1 mps 735 mmHg 12%
    14:00 +30°C° 0 mm 2 mps 734 mmHg 12%
    15:00 +29°C° 0 mm 1 mps 734 mmHg 14%
    16:00 +28°C° 0 mm 1 mps 734 mmHg 16%
    17:00 +27°C° 0 mm 1 mps 734 mmHg 18%
    18:00 +26°C° 0 mm 1 mps 734 mmHg 18%
    19:00 +25°C° 0 mm 1 mps 735 mmHg 18%
    20:00 +24°C° 0 mm 1 mps 735 mmHg 19%
    21:00 +23°C° 0 mm 1 mps 736 mmHg 19%
    22:00 +21°C° 0 mm 2 mps 736 mmHg 20%
    23:00 +21°C° 0 mm 2 mps 736 mmHg 20%

    25 October, Thursday

    Time Temperature Precipitation Wind Pressure Humidity
    00:00 +20°C° 0 mm 2 mps 736 mmHg 20%
    01:00 +20°C° 0 mm 2 mps 736 mmHg 20%
    02:00 +19°C° 0 mm 2 mps 735 mmHg 21%
    03:00 +19°C° 0 mm 2 mps 735 mmHg 21%
    04:00 +19°C° 0 mm 2 mps 735 mmHg 21%
    05:00 +18°C° 0 mm 2 mps 735 mmHg 21%
    06:00 +19°C° 0 mm 2 mps 736 mmHg 20%
    07:00 +20°C° 0 mm 2 mps 736 mmHg 20%
    08:00 +21°C° 0 mm 2 mps 737 mmHg 20%
    09:00 +24°C° 0 mm 2 mps 737 mmHg 18%
    10:00 +26°C° 0 mm 1 mps 737 mmHg 15%
    11:00 +28°C° 0 mm 1 mps 737 mmHg 13%
    12:00 +29°C° 0 mm 1 mps 737 mmHg 12%
    13:00 +29°C° 0 mm 2 mps 736 mmHg 12%
    14:00 +30°C° 0 mm 2 mps 736 mmHg 11%
    15:00 +29°C° 0 mm 1 mps 736 mmHg 13%
    16:00 +28°C° 0 mm 1 mps 736 mmHg 15%
    17:00 +27°C° 0 mm 1 mps 736 mmHg 17%
    18:00 +26°C° 0 mm 1 mps 736 mmHg 17%
    19:00 +25°C° 0 mm 1 mps 737 mmHg 18%
    20:00 +24°C° 0 mm 1 mps 737 mmHg 18%
    21:00 +24°C° 0 mm 1 mps 737 mmHg 19%
    22:00 +23°C° 0 mm 1 mps 738 mmHg 20%
    23:00 +21°C° 0 mm 2 mps 738 mmHg 21%

    26 October, Friday

    Time Temperature Precipitation Wind Pressure Humidity
    00:00 +21°C° 0 mm 2 mps 738 mmHg 21%
    01:00 +20°C° 0 mm 2 mps 737 mmHg 21%
    02:00 +20°C° 0 mm 2 mps 737 mmHg 22%
    03:00 +19°C° 0 mm 2 mps 737 mmHg 22%
    04:00 +19°C° 0 mm 2 mps 737 mmHg 22%
    05:00 +19°C° 0 mm 2 mps 737 mmHg 22%
    06:00 +19°C° 0 mm 2 mps 738 mmHg 22%
    07:00 +20°C° 0 mm 2 mps 738 mmHg 22%
    08:00 +21°C° 0 mm 2 mps 738 mmHg 21%
    09:00 +24°C° 0 mm 1 mps 738 mmHg 19%
    10:00 +26°C° 0 mm 1 mps 739 mmHg 16%
    11:00 +28°C° 0 mm 1 mps 739 mmHg 14%
    12:00 +29°C° 0 mm 1 mps 738 mmHg 13%
    13:00 +30°C° 0 mm 1 mps 737 mmHg 12%
    14:00 +31°C° 0 mm 2 mps 737 mmHg 12%
    15:00 +30°C° 0 mm 1 mps 737 mmHg 14%
    16:00 +29°C° 0 mm 1 mps 736 mmHg 16%
    17:00 +28°C° 0 mm 1 mps 736 mmHg 18%
    18:00 +27°C° 0 mm 1 mps 737 mmHg 19%
    19:00 +25°C° 0 mm 1 mps 737 mmHg 19%
    20:00 +24°C° 0 mm 1 mps 738 mmHg 20%
    21:00 +24°C° 0 mm 1 mps 738 mmHg 20%
    22:00 +23°C° 0 mm 1 mps 738 mmHg 21%
    23:00 +21°C° 0 mm 2 mps 738 mmHg 21%
    Show more